Location: M.A.R.S.Observatory
(35.4031°N, 81.5481°W)
Time: 07:09:56
(UTC-05:00)

ISS - Visible Passes

Search period start: 06 December 2021 00:00
Search period end: 16 December 2021 00:00
Orbit: 417 x 422 km, 51.6° (Epoch: 06 December)

Date Brightness Start Highest point End Pass type
(mag) Time Alt. Az. Time Alt. Az. Time Alt. Az.
06 Dec -3.0 18:16:05 10° NNW 18:19:13 34° NE 18:20:29 25° E visible
06 Dec -0.3 19:53:19 10° W 19:53:31 11° W 19:53:31 11° W visible
07 Dec -2.3 19:05:27 10° WNW 19:08:35 36° SW 19:09:17 32° SSW visible
08 Dec -3.5 18:17:53 10° NW 18:21:15 71° SW 18:24:35 10° SE visible
09 Dec -0.3 19:09:22 10° WSW 19:10:14 11° SW 19:11:06 10° SW visible
10 Dec -0.8 18:20:28 10° W 18:22:59 20° SW 18:25:30 10° S visible
